• en France
  • Liste des pays
  • À 7 jours
  • Température de l'eau
  • Carte satellitaire
  • Carte météo
  • Widgets météo
  • user-avatar
    Se connecter

    Météo par heure à Okoyo

    Ce jour, 20 Août, Lundi

    Heure Température Précipitation Vent Pression Humidité
    00:00 +26°C° 0,6 mm 3 m/s 725 mmHg 75%
    01:00 +26°C° 0 mm 3 m/s 726 mmHg 78%
    02:00 +25°C° 0,6 mm 3 m/s 726 mmHg 79%
    03:00 +25°C° 0,6 mm 3 m/s 725 mmHg 80%
    04:00 +25°C° 0,6 mm 3 m/s 725 mmHg 81%
    05:00 +25°C° 0 mm 3 m/s 726 mmHg 81%
    06:00 +25°C° 0 mm 3 m/s 726 mmHg 81%
    07:00 +25°C° 0 mm 3 m/s 726 mmHg 81%
    08:00 +27°C° 0 mm 3 m/s 726 mmHg 73%
    09:00 +28°C° 0 mm 3 m/s 726 mmHg 65%
    10:00 +30°C° 0 mm 3 m/s 727 mmHg 57%
    11:00 +31°C° 0,3 mm 3 m/s 726 mmHg 53%
    12:00 +34°C° 0,3 mm 3 m/s 725 mmHg 48%
    13:00 +35°C° 0,3 mm 3 m/s 725 mmHg 44%
    14:00 +35°C° 0,1 mm 3 m/s 724 mmHg 44%
    15:00 +34°C° 0,1 mm 3 m/s 723 mmHg 45%
    16:00 +34°C° 0,1 mm 2 m/s 723 mmHg 45%
    17:00 +32°C° 0,3 mm 2 m/s 723 mmHg 49%
    18:00 +31°C° 0,3 mm 2 m/s 723 mmHg 53%
    19:00 +30°C° 0,3 mm 2 m/s 724 mmHg 57%
    20:00 +29°C° 0,2 mm 2 m/s 724 mmHg 61%
    21:00 +28°C° 0,2 mm 2 m/s 725 mmHg 65%
    22:00 +27°C° 0,2 mm 2 m/s 725 mmHg 69%
    23:00 +27°C° 0,3 mm 2 m/s 725 mmHg 70%

    Demain, 21 Août, Mardi

    Heure Température Précipitation Vent Pression Humidité
    00:00 +27°C° 0,3 mm 2 m/s 725 mmHg 72%
    01:00 +26°C° 0,3 mm 2 m/s 725 mmHg 73%
    02:00 +26°C° 0 mm 2 m/s 725 mmHg 73%
    03:00 +26°C° 0 mm 3 m/s 725 mmHg 73%
    04:00 +26°C° 0 mm 3 m/s 724 mmHg 72%
    05:00 +26°C° 0 mm 3 m/s 725 mmHg 72%
    06:00 +26°C° 0 mm 3 m/s 725 mmHg 72%
    07:00 +26°C° 0 mm 3 m/s 725 mmHg 71%
    08:00 +27°C° 0 mm 3 m/s 726 mmHg 65%
    09:00 +29°C° 0 mm 4 m/s 726 mmHg 59%
    10:00 +32°C° 0 mm 4 m/s 726 mmHg 52%
    11:00 +33°C° 0 mm 3 m/s 726 mmHg 48%
    12:00 +34°C° 0 mm 3 m/s 725 mmHg 44%
    13:00 +36°C° 0 mm 3 m/s 724 mmHg 39%
    14:00 +36°C° 0 mm 3 m/s 724 mmHg 39%
    15:00 +36°C° 0 mm 3 m/s 723 mmHg 39%
    16:00 +36°C° 0 mm 2 m/s 722 mmHg 38%
    17:00 +35°C° 0 mm 2 m/s 723 mmHg 41%
    18:00 +34°C° 0 mm 2 m/s 723 mmHg 44%
    19:00 +31°C° 0 mm 1 m/s 723 mmHg 48%
    20:00 +31°C° 0 mm 2 m/s 724 mmHg 50%
    21:00 +30°C° 0 mm 2 m/s 724 mmHg 53%
    22:00 +30°C° 0 mm 2 m/s 725 mmHg 56%
    23:00 +29°C° 0,1 mm 2 m/s 725 mmHg 58%

    Après-demain, 22 Août, Mercredi

    Heure Température Précipitation Vent Pression Humidité
    00:00 +29°C° 0,1 mm 3 m/s 725 mmHg 60%
    01:00 +28°C° 0,1 mm 3 m/s 724 mmHg 63%
    02:00 +28°C° 0,1 mm 3 m/s 724 mmHg 64%
    03:00 +27°C° 0,1 mm 3 m/s 724 mmHg 65%
    04:00 +27°C° 0,1 mm 4 m/s 724 mmHg 67%
    05:00 +27°C° 0 mm 3 m/s 724 mmHg 68%
    06:00 +27°C° 0 mm 3 m/s 724 mmHg 68%
    07:00 +26°C° 0 mm 3 m/s 725 mmHg 69%
    08:00 +28°C° 0 mm 3 m/s 725 mmHg 64%
    09:00 +29°C° 0 mm 4 m/s 726 mmHg 60%
    10:00 +30°C° 0 mm 4 m/s 727 mmHg 55%
    11:00 +32°C° 0 mm 4 m/s 726 mmHg 52%
    12:00 +34°C° 0 mm 4 m/s 725 mmHg 48%
    13:00 +35°C° 0 mm 4 m/s 725 mmHg 45%
    14:00 +34°C° 0 mm 4 m/s 724 mmHg 45%
    15:00 +34°C° 0 mm 4 m/s 723 mmHg 45%
    16:00 +34°C° 0 mm 4 m/s 723 mmHg 45%
    17:00 +33°C° 0 mm 3 m/s 723 mmHg 49%
    18:00 +31°C° 0 mm 3 m/s 724 mmHg 52%
    19:00 +30°C° 0 mm 3 m/s 724 mmHg 55%
    20:00 +29°C° 0 mm 3 m/s 725 mmHg 58%
    21:00 +28°C° 0 mm 3 m/s 725 mmHg 60%
    22:00 +28°C° 0 mm 3 m/s 726 mmHg 62%
    23:00 +27°C° 0,1 mm 3 m/s 725 mmHg 63%

    23 Août, Jeudi

    Heure Température Précipitation Vent Pression Humidité
    00:00 +27°C° 0,1 mm 3 m/s 725 mmHg 64%
    01:00 +27°C° 0,1 mm 3 m/s 725 mmHg 66%
    02:00 +26°C° 0 mm 3 m/s 725 mmHg 67%
    03:00 +26°C° 0 mm 3 m/s 724 mmHg 68%
    04:00 +26°C° 0 mm 3 m/s 724 mmHg 69%
    05:00 +26°C° 0 mm 3 m/s 725 mmHg 70%
    06:00 +25°C° 0 mm 3 m/s 725 mmHg 70%
    07:00 +25°C° 0 mm 3 m/s 725 mmHg 71%
    08:00 +27°C° 0 mm 3 m/s 726 mmHg 66%
    09:00 +28°C° 0 mm 3 m/s 726 mmHg 61%
    10:00 +29°C° 0 mm 3 m/s 727 mmHg 56%
    11:00 +30°C° 0 mm 3 m/s 726 mmHg 54%
    12:00 +31°C° 0 mm 3 m/s 725 mmHg 51%
    13:00 +31°C° 0 mm 3 m/s 724 mmHg 48%
    14:00 +31°C° 0 mm 3 m/s 724 mmHg 48%
    15:00 +32°C° 0 mm 4 m/s 723 mmHg 48%
    16:00 +32°C° 0 mm 4 m/s 723 mmHg 48%
    17:00 +30°C° 0 mm 3 m/s 723 mmHg 50%
    18:00 +29°C° 0 mm 3 m/s 724 mmHg 53%
    19:00 +28°C° 0 mm 2 m/s 724 mmHg 55%
    20:00 +27°C° 0 mm 2 m/s 724 mmHg 57%
    21:00 +27°C° 0 mm 2 m/s 725 mmHg 58%
    22:00 +26°C° 0 mm 2 m/s 725 mmHg 59%
    23:00 +26°C° 0 mm 2 m/s 725 mmHg 59%

    24 Août, Vendredi

    Heure Température Précipitation Vent Pression Humidité
    00:00 +26°C° 0 mm 2 m/s 725 mmHg 60%
    01:00 +26°C° 0 mm 2 m/s 724 mmHg 60%
    02:00 +26°C° 0 mm 2 m/s 724 mmHg 61%
    03:00 +25°C° 0 mm 2 m/s 724 mmHg 62%
    04:00 +25°C° 0 mm 1 m/s 723 mmHg 63%
    05:00 +25°C° 0 mm 1 m/s 724 mmHg 64%
    06:00 +25°C° 0 mm 1 m/s 724 mmHg 64%
    07:00 +25°C° 0 mm 1 m/s 725 mmHg 65%
    08:00 +27°C° 0 mm 1 m/s 725 mmHg 58%
    09:00 +29°C° 0 mm 2 m/s 726 mmHg 52%
    10:00 +30°C° 0 mm 2 m/s 726 mmHg 45%
    11:00 +31°C° 0 mm 2 m/s 726 mmHg 42%
    12:00 +32°C° 0 mm 2 m/s 725 mmHg 40%
    13:00 +34°C° 0 mm 3 m/s 724 mmHg 37%
    14:00 +34°C° 0 mm 3 m/s 724 mmHg 40%
    15:00 +33°C° 0 mm 3 m/s 723 mmHg 42%
    16:00 +31°C° 0 mm 3 m/s 723 mmHg 44%
    17:00 +30°C° 0 mm 3 m/s 723 mmHg 49%
    18:00 +29°C° 0 mm 2 m/s 724 mmHg 55%
    19:00 +28°C° 0 mm 2 m/s 724 mmHg 60%
    20:00 +27°C° 0 mm 2 m/s 724 mmHg 62%
    21:00 +27°C° 0 mm 1 m/s 724 mmHg 64%
    22:00 +26°C° 0 mm 1 m/s 725 mmHg 66%
    23:00 +26°C° 0 mm 1 m/s 725 mmHg 67%

    25 Août, Samedi

    Heure Température Précipitation Vent Pression Humidité
    00:00 +26°C° 0 mm 1 m/s 724 mmHg 68%
    01:00 +26°C° 0 mm 1 m/s 724 mmHg 70%
    02:00 +26°C° 0 mm 1 m/s 724 mmHg 71%
    03:00 +25°C° 0 mm 1 m/s 724 mmHg 72%
    04:00 +25°C° 0 mm 1 m/s 724 mmHg 73%
    05:00 +25°C° 0 mm 1 m/s 724 mmHg 73%
    06:00 +25°C° 0 mm 1 m/s 725 mmHg 73%
    07:00 +25°C° 0 mm 1 m/s 725 mmHg 73%
    08:00 +27°C° 0 mm 2 m/s 726 mmHg 69%
    09:00 +28°C° 0 mm 2 m/s 726 mmHg 65%
    10:00 +29°C° 0 mm 2 m/s 727 mmHg 61%
    11:00 +30°C° 0,1 mm 2 m/s 726 mmHg 57%
    12:00 +31°C° 0,1 mm 2 m/s 725 mmHg 54%
    13:00 +32°C° 0,1 mm 2 m/s 724 mmHg 50%
    14:00 +32°C° 0 mm 2 m/s 724 mmHg 48%
    15:00 +34°C° 0 mm 2 m/s 723 mmHg 46%
    16:00 +34°C° 0 mm 2 m/s 723 mmHg 44%
    17:00 +32°C° 0 mm 2 m/s 723 mmHg 48%
    18:00 +31°C° 0 mm 1 m/s 723 mmHg 52%
    19:00 +29°C° 0 mm 1 m/s 724 mmHg 55%
    20:00 +29°C° 0,2 mm 1 m/s 724 mmHg 58%
    21:00 +28°C° 0,2 mm 1 m/s 725 mmHg 62%
    22:00 +28°C° 0,2 mm 2 m/s 725 mmHg 65%
    23:00 +27°C° 0,1 mm 2 m/s 725 mmHg 68%
    Voir plus